Weather History for Flag Island, MN

Change the Weather History Date:

Wednesday, August 1, 2012

  Actual Average Record
Temperature  
Mean Temperature 71 °F -  
Max Temperature 78 °F 70 °F 82 °F (2005)
Min Temperature 64 °F 58 °F 48 °F (1999)
Cooling Degree Days 6    
Growing Degree Days 21 (Base 50)    
Moisture  
Dew Point 63 °F    
Average Humidity 70    
Maximum Humidity 83    
Minimum Humidity 54    
Precipitation  
Precipitation 0.00 in - - ()
Sea Level Pressure  
Sea Level Pressure 29.75 in    
Wind  
Wind Speed 14 mph (West)    
Max Wind Speed 23 mph    
Max Gust Speed 26 mph    
Visibility 10 miles    
Events      
Averages and records for this station are not official NWS values.
T = Trace of Precipitation, MM = Missing Value Source: NWS Daily Summary

Daily Weather History Graph

Daily Weather History Graph

Search for Another Location

Airport:

Trip Planner

Search our weather history database for the weather conditions in past years. The results will help you decide how hot, cold, wet, or windy it might be!

Date:

Astronomy

Aug. 01, 2012 Rise Set
Actual Time 5:52 AM CDT 8:58 PM CDT
Civil Twilight 5:14 AM CDT 9:36 PM CDT
Nautical Twilight 4:24 AM CDT 10:25 PM CDT
Astronomical Twilight 3:22 AM CDT 11:26 PM CDT
Moon 8:22 PM CDT 5:25 AM CDT
Length of Visible Light 16h 22m
Length of Day
15h 06m
Full, 100% of the Moon is Illuminated
Aug 1
Full
Aug 1
Full
Aug 9
Last Quarter
Aug 17
New
Aug 24
First Quarter

Hourly Weather History & Observations

Time (CDT) Temp. Dew Point Humidity Pressure Visibility Wind Dir Wind Speed Gust Speed Precip Events Conditions
12:13 AM 75.2 °F 66.2 °F 73% 29.77 in 7.0 mi South 8.1 mph - N/A   Clear
12:33 AM 75.2 °F 66.2 °F 73% 29.76 in 7.0 mi SSW 9.2 mph - N/A   Clear
1:13 AM 73.4 °F 66.2 °F 78% 29.74 in 10.0 mi SSW 16.1 mph - N/A   Clear
1:33 AM 73.4 °F 66.2 °F 78% 29.74 in 10.0 mi SW 19.6 mph - N/A   Clear
1:54 AM 73.4 °F 66.2 °F 78% 29.73 in 10.0 mi SW 19.6 mph 26.5 mph N/A   Clear
2:13 AM 73.4 °F 66.2 °F 78% 29.73 in 10.0 mi SW 19.6 mph - N/A   Clear
2:33 AM 73.4 °F 64.4 °F 73% 29.73 in 10.0 mi SW 19.6 mph - N/A   Clear
2:54 AM 73.4 °F 66.2 °F 78% 29.74 in 10.0 mi SW 17.3 mph - N/A   Clear
3:13 AM 73.4 °F 64.4 °F 73% 29.73 in 10.0 mi SW 16.1 mph - N/A   Clear
3:33 AM 73.4 °F 64.4 °F 73% 29.73 in 10.0 mi SW 17.3 mph - N/A   Clear
3:54 AM 71.6 °F 64.4 °F 78% 29.73 in 10.0 mi SW 17.3 mph - N/A   Clear
4:13 AM 71.6 °F 64.4 °F 78% 29.72 in 10.0 mi SW 13.8 mph - N/A   Clear
4:33 AM 71.6 °F 64.4 °F 78% 29.72 in 10.0 mi WSW 13.8 mph - N/A   Clear
4:54 AM 71.6 °F 64.4 °F 78% 29.72 in 10.0 mi WSW 12.7 mph - N/A   Clear
5:14 AM 71.6 °F 64.4 °F 78% 29.72 in 10.0 mi WSW 12.7 mph - N/A   Clear
5:33 AM 71.6 °F 64.4 °F 78% 29.72 in 10.0 mi WSW 11.5 mph - N/A   Clear
5:54 AM 71.6 °F 64.4 °F 78% 29.72 in 10.0 mi WSW 9.2 mph - N/A   Clear
6:14 AM 71.6 °F 64.4 °F 78% 29.72 in 10.0 mi WSW 9.2 mph - N/A   Clear
6:33 AM 71.6 °F 64.4 °F 78% 29.72 in 10.0 mi West 8.1 mph - N/A   Clear
6:54 AM 71.6 °F 64.4 °F 78% 29.72 in 10.0 mi West 9.2 mph - N/A   Clear
7:14 AM 71.6 °F 64.4 °F 78% 29.72 in 10.0 mi West 11.5 mph - N/A   Clear
7:33 AM 71.6 °F 64.4 °F 78% 29.72 in 10.0 mi West 11.5 mph - N/A   Clear
7:54 AM 71.6 °F 64.4 °F 78% 29.72 in 10.0 mi WNW 15.0 mph - N/A   Clear
8:14 AM 71.6 °F 64.4 °F 78% 29.73 in 10.0 mi WNW 15.0 mph - N/A   Clear
8:33 AM 71.6 °F 62.6 °F 73% 29.72 in 10.0 mi WNW 13.8 mph - N/A   Clear
8:53 AM 71.6 °F 62.6 °F 73% 29.72 in 10.0 mi West 15.0 mph - N/A   Clear
9:14 AM 73.4 °F 62.6 °F 69% 29.72 in 10.0 mi West 16.1 mph - N/A   Clear
9:33 AM 73.4 °F 62.6 °F 69% 29.72 in 10.0 mi WNW 17.3 mph 21.9 mph N/A   Clear
9:53 AM 73.4 °F 62.6 °F 69% 29.73 in 10.0 mi NW 19.6 mph - N/A   Scattered Clouds
10:14 AM 73.4 °F 62.6 °F 69% 29.74 in 10.0 mi WNW 16.1 mph 24.2 mph N/A   Scattered Clouds
10:33 AM 73.4 °F 62.6 °F 69% 29.74 in 10.0 mi WNW 17.3 mph - N/A   Scattered Clouds
10:53 AM 73.4 °F 62.6 °F 69% 29.75 in 10.0 mi NW 18.4 mph 21.9 mph N/A   Scattered Clouds
11:14 AM 73.4 °F 62.6 °F 69% 29.75 in 10.0 mi WNW 19.6 mph - N/A   Mostly Cloudy
11:33 AM 75.2 °F 62.6 °F 65% 29.75 in 10.0 mi NW 23.0 mph - N/A   Mostly Cloudy
11:53 AM 75.2 °F 64.4 °F 69% 29.76 in 10.0 mi NW 19.6 mph - N/A   Scattered Clouds
12:14 PM 73.4 °F 62.6 °F 69% 29.76 in 10.0 mi NW 17.3 mph 20.7 mph N/A   Overcast
12:33 PM 73.4 °F 62.6 °F 69% 29.76 in 10.0 mi NW 17.3 mph - N/A   Overcast
12:53 PM 73.4 °F 64.4 °F 73% 29.78 in 10.0 mi NW 13.8 mph - N/A   Overcast
1:14 PM 73.4 °F 64.4 °F 73% 29.77 in 10.0 mi WNW 16.1 mph - N/A   Overcast
1:33 PM 73.4 °F 62.6 °F 69% 29.76 in 10.0 mi NW 16.1 mph 26.5 mph N/A   Scattered Clouds
1:53 PM 75.2 °F 64.4 °F 69% 29.77 in 10.0 mi NW 18.4 mph 21.9 mph N/A   Scattered Clouds
2:13 PM 75.2 °F 64.4 °F 69% 29.78 in 10.0 mi WNW 13.8 mph 17.3 mph N/A   Mostly Cloudy
2:33 PM 75.2 °F 64.4 °F 69% 29.79 in 10.0 mi WNW 16.1 mph 19.6 mph N/A   Overcast
2:54 PM 75.2 °F 64.4 °F 69% 29.79 in 10.0 mi West 9.2 mph - N/A   Mostly Cloudy
3:13 PM 75.2 °F 62.6 °F 65% 29.79 in 10.0 mi NW 11.5 mph - N/A   Mostly Cloudy
3:33 PM 77.0 °F 62.6 °F 61% 29.79 in 10.0 mi WNW 12.7 mph 17.3 mph N/A   Mostly Cloudy
3:54 PM 77.0 °F 62.6 °F 61% 29.80 in 10.0 mi NW 17.3 mph - N/A   Mostly Cloudy
4:13 PM 78.8 °F 60.8 °F 54% 29.80 in 10.0 mi WNW 18.4 mph 24.2 mph N/A   Scattered Clouds
4:33 PM 78.8 °F 60.8 °F 54% 29.80 in 10.0 mi NW 17.3 mph - N/A   Clear
4:54 PM 77.0 °F 60.8 °F 57% 29.79 in 10.0 mi NW 15.0 mph - N/A   Clear
5:13 PM 77.0 °F 62.6 °F 61% 29.78 in 10.0 mi WNW 16.1 mph - N/A   Clear
5:33 PM 77.0 °F 62.6 °F 61% 29.78 in 10.0 mi WNW 12.7 mph - N/A   Clear
5:54 PM 77.0 °F 62.6 °F 61% 29.78 in 10.0 mi NW 17.3 mph - N/A   Clear
6:13 PM 77.0 °F 59.0 °F 54% 29.79 in 10.0 mi NW 13.8 mph 24.2 mph N/A   Clear
6:33 PM 77.0 °F 60.8 °F 57% 29.78 in 10.0 mi NW 12.7 mph - N/A   Clear
6:53 PM 75.2 °F 60.8 °F 61% 29.78 in 10.0 mi WNW 8.1 mph - N/A   Clear
7:13 PM 75.2 °F 62.6 °F 65% 29.77 in 10.0 mi WNW 10.4 mph - N/A   Clear
7:34 PM 75.2 °F 60.8 °F 61% 29.77 in 10.0 mi West 6.9 mph - N/A   Clear
7:53 PM 75.2 °F 62.6 °F 65% 29.77 in 10.0 mi WNW 9.2 mph - N/A   Clear
8:13 PM 75.2 °F 62.6 °F 65% 29.77 in 10.0 mi WNW 11.5 mph - N/A   Clear
8:33 PM 73.4 °F 62.6 °F 69% 29.77 in 10.0 mi West 8.1 mph - N/A   Clear
8:53 PM 73.4 °F 62.6 °F 69% 29.78 in 10.0 mi WNW 5.8 mph - N/A   Clear
9:09 PM - - N/A% 29.77 in - WNW 4.6 mph - N/A   Unknown
11:28 PM 64.4 °F - N/A% 29.79 in - West 10.4 mph - N/A   Unknown
11:34 PM 64.4 °F 59.0 °F 83% 29.79 in 10.0 mi West 9.2 mph - N/A   Unknown
11:53 PM 64.4 °F 59.0 °F 83% 29.79 in 10.0 mi WNW 10.4 mph - N/A   Scattered Clouds